Weather History for Gainesville, TX

Change the Weather History Date:

Thursday, January 12, 2012

  Actual Average (KDTO) Record (KDTO)
Temperature  
Mean Temperature 32 °F -  
Max Temperature 37 °F 53 °F 79 °F (2000)
Min Temperature 28 °F 32 °F 18 °F (1997)
Degree Days  
Heating Degree Days 32    
Moisture  
Dew Point 13 °F    
Average Humidity 47    
Maximum Humidity 80    
Minimum Humidity 24    
Precipitation  
Precipitation 0.00 in - - ()
Sea Level Pressure  
Sea Level Pressure 30.20 in    
Wind  
Wind Speed 17 mph (NW)    
Max Wind Speed 23 mph    
Max Gust Speed 36 mph    
Visibility 10 miles    
Events      
Averages and records for this station are not official NWS values.
T = Trace of Precipitation, MM = Missing Value Source: NWS Daily Summary

Daily Weather History Graph

Daily Weather History Graph

Search for Another Location

Airport:

Trip Planner

Search our weather history database for the weather conditions in past years. The results will help you decide how hot, cold, wet, or windy it might be!

Date:

Astronomy

Jan. 12, 2012 Rise Set
Actual Time 7:33 AM CST 5:40 PM CST
Civil Twilight 7:06 AM CST 6:07 PM CST
Nautical Twilight 6:35 AM CST 6:38 PM CST
Astronomical Twilight 6:05 AM CST 7:08 PM CST
Moon 9:33 PM CST (1/12) 9:30 AM CST (1/12)
Length of Visible Light 11h 00m
Length of Day
10h 06m
Waning Gibbous, 87% of the Moon is Illuminated
Jan 12
Waning Gibbous
Jan 16
Last Quarter
Jan 23
New
Jan 30
First Quarter
Feb 7
Full

Hourly Weather History & Observations

Time (CST) Temp. Windchill Dew Point Humidity Pressure Visibility Wind Dir Wind Speed Gust Speed Precip Events Conditions
12:15 AM 32.0 °F 19.2 °F 24.8 °F 75% 30.06 in 10.0 mi NNW 23.0 mph 35.7 mph N/A   Scattered Clouds
12:35 AM 32.0 °F 19.2 °F 24.8 °F 75% 30.08 in 10.0 mi NNW 23.0 mph 29.9 mph N/A   Clear
12:55 AM 32.0 °F 19.5 °F 24.8 °F 75% 30.09 in 10.0 mi NNW 21.9 mph 31.1 mph N/A   Clear
1:15 AM 32.0 °F 20.5 °F 26.6 °F 80% 30.10 in 10.0 mi NNW 18.4 mph 24.2 mph N/A   Clear
1:35 AM 32.0 °F 20.8 °F 26.6 °F 80% 30.12 in 10.0 mi NNW 17.3 mph 23.0 mph N/A   Clear
1:55 AM 32.0 °F 21.2 °F 26.6 °F 80% 30.13 in 10.0 mi NW 16.1 mph - N/A   Clear
2:15 AM 32.0 °F 22.5 °F 24.8 °F 75% 30.14 in 10.0 mi NW 12.7 mph - N/A   Clear
2:35 AM 32.0 °F 22.5 °F 24.8 °F 75% 30.15 in 10.0 mi NW 12.7 mph 18.4 mph N/A   Clear
2:55 AM 32.0 °F 22.5 °F 23.0 °F 69% 30.15 in 10.0 mi NW 12.7 mph - N/A   Clear
3:15 AM 32.0 °F 21.2 °F 21.2 °F 64% 30.17 in 10.0 mi NW 16.1 mph 23.0 mph N/A   Clear
3:35 AM 32.0 °F 19.2 °F 15.8 °F 51% 30.17 in 10.0 mi NNW 23.0 mph 35.7 mph N/A   Clear
3:55 AM 32.0 °F 20.8 °F 17.6 °F 55% 30.18 in 10.0 mi NNW 17.3 mph 25.3 mph N/A   Clear
4:15 AM 32.0 °F 21.2 °F 17.6 °F 55% 30.18 in 10.0 mi NW 16.1 mph 26.5 mph N/A   Clear
4:35 AM 30.2 °F 17.8 °F 17.6 °F 60% 30.18 in 10.0 mi NW 19.6 mph 27.6 mph N/A   Clear
4:55 AM 30.2 °F 18.9 °F 17.6 °F 60% 30.19 in 10.0 mi NW 16.1 mph 21.9 mph N/A   Clear
5:15 AM 30.2 °F 20.2 °F 17.6 °F 60% 30.20 in 10.0 mi NW 12.7 mph - N/A   Clear
5:35 AM 30.2 °F 20.8 °F 17.6 °F 60% 30.20 in 10.0 mi NW 11.5 mph - N/A   Clear
5:55 AM 28.4 °F 19.7 °F 17.6 °F 64% 30.21 in 10.0 mi NW 9.2 mph - N/A   Clear
6:15 AM 28.4 °F 21.2 °F 19.4 °F 69% 30.21 in 10.0 mi WNW 6.9 mph - N/A   Clear
6:35 AM 28.4 °F 20.4 °F 19.4 °F 69% 30.22 in 10.0 mi WNW 8.1 mph - N/A   Clear
6:55 AM 28.4 °F 18.0 °F 17.6 °F 64% 30.22 in 10.0 mi NW 12.7 mph 18.4 mph N/A   Clear
7:15 AM 28.4 °F 18.0 °F 15.8 °F 59% 30.22 in 10.0 mi NW 12.7 mph - N/A   Clear
7:35 AM 28.4 °F 19.1 °F 15.8 °F 59% 30.22 in 10.0 mi NW 10.4 mph - N/A   Clear
7:55 AM 28.4 °F 19.1 °F 14.0 °F 55% 30.23 in 10.0 mi NW 10.4 mph - N/A   Clear
8:15 AM 28.4 °F 20.4 °F 17.6 °F 64% 30.24 in 10.0 mi WNW 8.1 mph - N/A   Clear
8:35 AM 28.4 °F 17.5 °F 8.6 °F 43% 30.24 in 10.0 mi WNW 13.8 mph 25.3 mph N/A   Clear
8:55 AM 30.2 °F 18.1 °F 8.6 °F 40% 30.25 in 10.0 mi WNW 18.4 mph 21.9 mph N/A   Clear
9:15 AM 30.2 °F 18.5 °F 8.6 °F 40% 30.25 in 10.0 mi WNW 17.3 mph 23.0 mph N/A   Clear
9:35 AM 30.2 °F 17.8 °F 6.8 °F 37% 30.25 in 10.0 mi NW 19.6 mph 25.3 mph N/A   Clear
9:55 AM 32.0 °F 19.5 °F 8.6 °F 38% 30.26 in 10.0 mi WNW 21.9 mph 25.3 mph N/A   Clear
10:15 AM 32.0 °F 20.5 °F 8.6 °F 38% 30.26 in 10.0 mi WNW 18.4 mph 28.8 mph N/A   Clear
10:35 AM 32.0 °F 19.5 °F 6.8 °F 35% 30.26 in 10.0 mi NW 21.9 mph 26.5 mph N/A   Clear
10:55 AM 32.0 °F 20.8 °F 5.0 °F 32% 30.26 in 10.0 mi NW 17.3 mph 25.3 mph N/A   Clear
11:15 AM 32.0 °F 20.8 °F 5.0 °F 32% 30.26 in 10.0 mi NW 17.3 mph 24.2 mph N/A   Clear
11:35 AM 33.8 °F 22.5 °F 6.8 °F 32% 30.25 in 10.0 mi WNW 19.6 mph 26.5 mph N/A   Clear
11:55 AM 33.8 °F 23.5 °F 6.8 °F 32% 30.25 in 10.0 mi WNW 16.1 mph 24.2 mph N/A   Clear
12:15 PM 33.8 °F 23.9 °F 6.8 °F 32% 30.24 in 10.0 mi WNW 15.0 mph 20.7 mph N/A   Clear
12:35 PM 33.8 °F 22.8 °F 5.0 °F 30% 30.23 in 10.0 mi WNW 18.4 mph 27.6 mph N/A   Clear
12:55 PM 35.6 °F 25.2 °F 5.0 °F 28% 30.23 in 10.0 mi WNW 18.4 mph 26.5 mph N/A   Clear
1:15 PM 35.6 °F 24.8 °F 5.0 °F 28% 30.21 in 10.0 mi NW 19.6 mph 25.3 mph N/A   Clear
1:35 PM 35.6 °F 24.8 °F 5.0 °F 28% 30.21 in 10.0 mi WNW 19.6 mph 27.6 mph N/A   Clear
1:55 PM 35.6 °F 25.9 °F 5.0 °F 28% 30.20 in 10.0 mi WNW 16.1 mph 25.3 mph N/A   Clear
2:15 PM 37.4 °F 27.2 °F 5.0 °F 26% 30.20 in 10.0 mi NW 19.6 mph 24.2 mph N/A   Clear
2:35 PM 37.4 °F 27.5 °F 5.0 °F 26% 30.20 in 10.0 mi WNW 18.4 mph 23.0 mph N/A   Clear
2:55 PM 37.4 °F 27.8 °F 5.0 °F 26% 30.20 in 10.0 mi NW 17.3 mph 26.5 mph N/A   Clear
3:15 PM 37.4 °F 27.5 °F 3.2 °F 24% 30.19 in 10.0 mi WNW 18.4 mph 25.3 mph N/A   Clear
3:35 PM 37.4 °F 27.2 °F 3.2 °F 24% 30.20 in 10.0 mi WNW 19.6 mph 24.2 mph N/A   Clear
3:55 PM 37.4 °F 28.9 °F 5.0 °F 26% 30.20 in 10.0 mi WNW 13.8 mph 23.0 mph N/A   Clear
4:15 PM 37.4 °F 29.3 °F 3.2 °F 24% 30.20 in 10.0 mi WNW 12.7 mph 20.7 mph N/A   Clear
4:35 PM 37.4 °F 29.3 °F 5.0 °F 26% 30.20 in 10.0 mi WNW 12.7 mph 20.7 mph N/A   Clear
4:55 PM 37.4 °F 29.3 °F 5.0 °F 26% 30.21 in 10.0 mi WNW 12.7 mph 18.4 mph N/A   Clear
5:15 PM 35.6 °F 29.2 °F 8.6 °F 33% 30.20 in 10.0 mi WNW 8.1 mph - N/A   Clear
5:35 PM 33.8 °F 30.8 °F 10.4 °F 38% 30.20 in 10.0 mi West 3.5 mph - N/A   Clear
5:55 PM 33.8 °F - 8.6 °F 35% 30.20 in 10.0 mi Calm Calm - N/A   Clear
6:15 PM 33.8 °F 30.8 °F 8.6 °F 35% 30.20 in 10.0 mi West 3.5 mph - N/A   Clear
6:35 PM 33.8 °F - 8.6 °F 35% 30.20 in 10.0 mi Calm Calm - N/A   Clear
6:55 PM 32.0 °F - 10.4 °F 41% 30.20 in 10.0 mi Calm Calm - N/A   Clear
7:15 PM 32.0 °F - 12.2 °F 44% 30.20 in 10.0 mi Calm Calm - N/A   Clear
7:35 PM 30.2 °F 25.4 °F 12.2 °F 47% 30.20 in 10.0 mi WSW 4.6 mph - N/A   Clear
7:55 PM 30.2 °F 26.7 °F 14.0 °F 51% 30.21 in 10.0 mi WSW 3.5 mph - N/A   Clear
8:15 PM 28.4 °F - 14.0 °F 55% 30.21 in 10.0 mi Calm Calm - N/A   Clear
8:35 PM 28.4 °F 23.3 °F 15.8 °F 59% 30.22 in 10.0 mi West 4.6 mph - N/A   Clear
8:55 PM 26.6 °F 22.6 °F 17.6 °F 69% 30.21 in 10.0 mi WSW 3.5 mph - N/A   Clear
9:15 PM 28.4 °F 22.2 °F 17.6 °F 64% 30.21 in 10.0 mi West 5.8 mph - N/A   Clear
9:35 PM 28.4 °F 24.6 °F 19.4 °F 69% 30.21 in 10.0 mi West 3.5 mph - N/A   Clear
9:55 PM 28.4 °F 24.6 °F 17.6 °F 64% 30.20 in 10.0 mi West 3.5 mph - N/A   Clear
10:15 PM 28.4 °F - 19.4 °F 69% 30.20 in 10.0 mi Calm Calm - N/A   Clear
10:35 PM 26.6 °F - 17.6 °F 69% 30.20 in 10.0 mi Calm Calm - N/A   Clear
10:55 PM 26.6 °F 22.6 °F 19.4 °F 74% 30.21 in 10.0 mi SW 3.5 mph - N/A   Clear
11:15 PM 26.6 °F 22.6 °F 19.4 °F 74% 30.22 in 10.0 mi West 3.5 mph - N/A   Clear
11:35 PM 26.6 °F 22.6 °F 19.4 °F 74% 30.22 in 10.0 mi West 3.5 mph - N/A   Clear
11:55 PM 26.6 °F - 19.4 °F 74% 30.22 in 10.0 mi Calm Calm - N/A   Clear